Location: Litvinovka
(48.6667°N, 34.3500°E)
Time: 16:20:04
(UTC+00:00)

Tsikada Rocket - Pass Details

Date: 18 September 2020
Orbit: 957 x 1010 km, 82.9° (Epoch: 21 October)

Event Time Altitude Azimuth Distance (km) Brightness Sun altitude
Rises 16:08:50 0° 349° (N) 3,657 7.3 -4.2°
Reaches altitude 10° 16:11:21 10° 349° (N) 2,704 6.6 -4.6°
Maximum altitude 16:17:32 82° 263° (W) 974 4.2 -5.6°
Drops below altitude 10° 16:23:40 10° 177° (S) 2,687 6.2 -6.6°
Sets 16:26:10 0° 177° (S) 3,633 6.8 -7.0°
